User: anonymous   Login
Location: Unspecified
(0.0000°N, 0.0000°E)
Time: 15:20:59
(UTC+00:00)
Language:

Explorer 22 - Orbit

View from above orbital plane
View from above orbital plane
View from above satellite
View from above satellite

Ground track
Ground track

The orbit data is extracted from the following two-line orbital elements,

1 00899U 64064A   18261.52766873  .00000054  00000-0  42634-4 0  9990
2 00899  79.6933 339.0292 0119776 270.3271  88.4155 13.82070044714547
Epoch (UTC): 18 September 2018 12:39:50
Eccentricity: 0.0119776
inclination: 79.6933°
perigee height: 869 km
apogee height: 1044 km
right ascension of ascending node: 339.0292°
argument of perigee: 270.3271°
revolutions per day: 13.82070044
mean anomaly at epoch: 88.4155°
orbit number at epoch: 71454

The dashed part of the orbit path shows where the satellite is in the earth's shadow,  

DLR